QTR909 YSSY-OTHH

Flight info

Callsign QTR909
Flight time N/A
Altitude 30000
Route TESAT A576 PKS J141 LEC T21 NONAX/N0504F320 T21 PD N509 MUTMI/N0498F340 N509 ELATI N640 KAT P570 BASUR/N0492F360 P570 EMURU N563 SODEX/N0489F340 N563 UMIBU P899 TOVOX
Aircraft B77W/H-SDE1E2E3FGHIJ2J3J4J5M1RWXY/LB1D1

Departure

Time 2026-04-30 09:42
Airport Sydney Kingsford Smith International Airport (YSSY)

Arrival

Time N/A
Airport Hamad International Airport (OTHH)
Time Latitude Longitude Altitude Speed Heading
2026-04-30 08:47 -33.93892 151.16855 35 ft 0 kts 74°
2026-04-30 09:23 -33.93898 151.16828 32 ft 4 kts 76°
2026-04-30 09:23 -33.93903 151.16797 35 ft 4 kts 89°
2026-04-30 09:23 -33.93901 151.16772 33 ft 4 kts 124°
2026-04-30 09:24 -33.93896 151.16764 30 ft 1 kts 163°
2026-04-30 09:24 -33.93913 151.16770 31 ft 4 kts 163°
2026-04-30 09:24 -33.93933 151.16776 35 ft 4 kts 169°
2026-04-30 09:24 -33.93947 151.16780 35 ft 0 kts 164°
2026-04-30 09:29 -33.93965 151.16787 35 ft 6 kts 164°
2026-04-30 09:29 -33.94032 151.16812 35 ft 10 kts 154°
2026-04-30 09:29 -33.94048 151.16883 34 ft 11 kts 95°
2026-04-30 09:30 -33.94024 151.16995 34 ft 17 kts 72°
2026-04-30 09:30 -33.93986 151.17154 34 ft 23 kts 75°
2026-04-30 09:30 -33.94045 151.17254 34 ft 17 kts 174°
2026-04-30 09:30 -33.94184 151.17280 32 ft 23 kts 167°
2026-04-30 09:31 -33.94360 151.17325 35 ft 28 kts 168°
2026-04-30 09:31 -33.94569 151.17379 34 ft 33 kts 167°
2026-04-30 09:31 -33.94814 151.17443 34 ft 38 kts 168°
2026-04-30 09:31 -33.95084 151.17514 34 ft 39 kts 168°
2026-04-30 09:32 -33.95306 151.17572 34 ft 30 kts 168°
2026-04-30 09:32 -33.95510 151.17624 34 ft 30 kts 168°
2026-04-30 09:32 -33.95713 151.17676 35 ft 30 kts 168°
2026-04-30 09:32 -33.95918 151.17729 35 ft 30 kts 167°
2026-04-30 09:33 -33.96123 151.17783 35 ft 30 kts 167°
2026-04-30 09:33 -33.96317 151.17833 35 ft 23 kts 167°
2026-04-30 09:33 -33.96339 151.17839 35 ft 0 kts 167°
2026-04-30 09:36 -33.96380 151.17851 35 ft 13 kts 163°
2026-04-30 09:36 -33.96430 151.17929 35 ft 0 kts 91°
2026-04-30 09:39 -33.96430 151.17944 34 ft 7 kts 89°
2026-04-30 09:40 -33.96346 151.18042 34 ft 16 kts 351°
2026-04-30 09:40 -33.96315 151.18035 34 ft 0 kts 347°
2026-04-30 09:41 -33.96290 151.18029 34 ft 13 kts 347°
2026-04-30 09:41 -33.95993 151.17952 32 ft 82 kts 348°
2026-04-30 09:42 -33.95180 151.17744 33 ft 156 kts 348°
2026-04-30 09:42 -33.93884 151.17475 66 ft 216 kts 352°
2026-04-30 09:42 -33.92381 151.17047 845 ft 218 kts 347°
2026-04-30 09:42 -33.90957 151.16498 1702 ft 222 kts 330°
2026-04-30 09:43 -33.89972 151.14989 2136 ft 240 kts 294°
2026-04-30 09:43 -33.89327 151.13112 2412 ft 250 kts 297°
2026-04-30 09:43 -33.88531 151.11181 2630 ft 264 kts 301°
2026-04-30 09:43 -33.87617 151.09237 2993 ft 272 kts 303°
2026-04-30 09:44 -33.86624 151.07279 3473 ft 278 kts 304°
2026-04-30 09:44 -33.85580 151.05292 4063 ft 280 kts 304°
2026-04-30 09:44 -33.84524 151.03308 4671 ft 282 kts 304°
2026-04-30 09:44 -33.83533 151.01284 5007 ft 287 kts 292°
2026-04-30 09:45 -33.83025 150.98939 5016 ft 289 kts 281°
2026-04-30 09:45 -33.82662 150.96571 4997 ft 289 kts 281°
2026-04-30 09:45 -33.82285 150.94194 5004 ft 286 kts 282°
2026-04-30 09:45 -33.81903 150.91837 5009 ft 286 kts 282°
2026-04-30 09:46 -33.81515 150.89500 5388 ft 289 kts 282°
2026-04-30 09:46 -33.81118 150.87142 6005 ft 289 kts 282°
2026-04-30 09:46 -33.80719 150.84797 6575 ft 291 kts 282°
2026-04-30 09:46 -33.80307 150.82397 7110 ft 293 kts 282°
2026-04-30 09:47 -33.79894 150.80000 7614 ft 295 kts 282°
2026-04-30 09:47 -33.79471 150.77558 8124 ft 298 kts 282°
2026-04-30 09:47 -33.79043 150.75097 8634 ft 301 kts 283°
2026-04-30 09:47 -33.78617 150.72656 9142 ft 303 kts 283°
2026-04-30 09:48 -33.78179 150.70146 9655 ft 305 kts 283°
2026-04-30 09:48 -33.77743 150.67655 10151 ft 308 kts 283°
2026-04-30 09:48 -33.77293 150.65093 10364 ft 323 kts 283°
2026-04-30 09:48 -33.76813 150.62364 10509 ft 339 kts 283°
2026-04-30 09:49 -33.76317 150.59548 10643 ft 356 kts 283°
2026-04-30 09:49 -33.75790 150.56554 10825 ft 371 kts 283°
2026-04-30 09:49 -33.75245 150.53463 11221 ft 380 kts 283°
2026-04-30 09:49 -33.74701 150.50372 11721 ft 385 kts 283°
2026-04-30 09:50 -33.74146 150.47225 12333 ft 386 kts 283°
2026-04-30 09:50 -33.73584 150.44049 12966 ft 388 kts 283°
2026-04-30 09:50 -33.73018 150.40857 13565 ft 390 kts 283°
2026-04-30 09:50 -33.72454 150.37678 14119 ft 393 kts 283°
2026-04-30 09:51 -33.71884 150.34470 14629 ft 396 kts 283°
2026-04-30 09:51 -33.71308 150.31240 15103 ft 400 kts 283°
2026-04-30 09:51 -33.70665 150.27954 15586 ft 403 kts 287°
2026-04-30 09:51 -33.69852 150.24747 16060 ft 406 kts 289°
2026-04-30 09:52 -33.68942 150.21505 16560 ft 409 kts 290°
2026-04-30 09:52 -33.68012 150.18273 16987 ft 414 kts 290°
2026-04-30 09:52 -33.67075 150.15001 17442 ft 417 kts 289°
2026-04-30 09:52 -33.66133 150.11667 17895 ft 421 kts 289°
2026-04-30 09:53 -33.65206 150.08343 18384 ft 425 kts 289°
2026-04-30 09:53 -33.64266 150.04937 18801 ft 429 kts 289°
2026-04-30 09:53 -33.63334 150.01548 19248 ft 431 kts 289°
2026-04-30 09:53 -33.62390 149.98106 19666 ft 434 kts 289°
2026-04-30 09:54 -33.61454 149.94690 20072 ft 437 kts 289°
2026-04-30 09:54 -33.60496 149.91200 20563 ft 437 kts 289°
2026-04-30 09:54 -33.59549 149.87749 20952 ft 440 kts 288°
2026-04-30 09:54 -33.58590 149.84263 21376 ft 443 kts 288°
2026-04-30 09:55 -33.57621 149.80744 21828 ft 444 kts 289°
2026-04-30 09:55 -33.56653 149.77236 22152 ft 448 kts 289°
2026-04-30 09:55 -33.55662 149.73652 22552 ft 450 kts 288°
2026-04-30 09:55 -33.54683 149.70113 23025 ft 451 kts 288°
2026-04-30 09:56 -33.53682 149.66499 23347 ft 454 kts 288°
2026-04-30 09:56 -33.52692 149.62930 23677 ft 458 kts 288°
2026-04-30 09:56 -33.51677 149.59277 24126 ft 458 kts 288°
2026-04-30 09:56 -33.50675 149.55674 24453 ft 460 kts 288°
2026-04-30 09:57 -33.49656 149.52011 24738 ft 462 kts 288°
2026-04-30 09:57 -33.48641 149.48370 25054 ft 464 kts 288°
2026-04-30 09:57 -33.47615 149.44695 25370 ft 466 kts 288°
2026-04-30 09:57 -33.46578 149.40982 25684 ft 468 kts 288°
2026-04-30 09:58 -33.45547 149.37302 25982 ft 469 kts 288°
2026-04-30 09:58 -33.44515 149.33618 26291 ft 471 kts 288°
2026-04-30 09:58 -33.43470 149.29896 26577 ft 473 kts 288°
2026-04-30 09:58 -33.42417 149.26146 26863 ft 475 kts 288°
2026-04-30 09:59 -33.40314 149.18676 27411 ft 478 kts 288°
2026-04-30 09:59 -33.38167 149.11068 27942 ft 482 kts 288°
2026-04-30 10:00 -33.36020 149.03483 28454 ft 485 kts 288°
2026-04-30 10:00 -33.34940 148.99675 28688 ft 487 kts 288°
2026-04-30 10:01 -33.32747 148.91960 29120 ft 490 kts 288°
2026-04-30 10:01 -33.31652 148.88114 29334 ft 492 kts 288°
2026-04-30 10:01 -33.30552 148.84253 29556 ft 493 kts 288°
2026-04-30 10:02 -33.28326 148.76457 29954 ft 495 kts 288°
2026-04-30 10:02 -33.27112 148.72217 30233 ft 495 kts 288°
2026-04-30 10:02 -33.18246 148.41401 30578 ft 505 kts 289°
2026-04-30 10:02 -33.13585 148.25361 30474 ft 504 kts 289°
2026-04-30 10:03 -33.12556 148.21441 30363 ft 493 kts 285°
2026-04-30 10:03 -33.08672 148.03051 30337 ft 480 kts 284°
2026-04-30 10:03 -33.04721 147.84663 30422 ft 492 kts 285°
2026-04-30 10:04 -32.97674 147.52286 30469 ft 505 kts 285°
2026-04-30 10:04 -32.90638 147.20412 30293 ft 497 kts 285°
2026-04-30 10:04 -32.83671 146.89255 30171 ft 479 kts 286°
2026-04-30 10:04 -32.76739 146.58651 30314 ft 474 kts 286°
2026-04-30 10:05 -32.69765 146.28247 30482 ft 484 kts 286°
2026-04-30 10:05 -32.55359 145.66492 30210 ft 478 kts 286°
2026-04-30 10:06 -32.41049 145.06590 30375 ft 477 kts 287°
2026-04-30 10:06 -32.33710 144.76404 30419 ft 488 kts 287°
2026-04-30 10:06 -32.26145 144.45678 30281 ft 487 kts 288°
2026-04-30 10:06 -32.18461 144.14787 30153 ft 475 kts 287°
2026-04-30 10:07 -32.11086 143.85431 30253 ft 470 kts 287°
2026-04-30 10:07 -32.03581 143.55910 30384 ft 478 kts 288°
2026-04-30 10:07 -31.95794 143.25655 30371 ft 487 kts 289°
2026-04-30 10:07 -31.87844 142.95158 30212 ft 484 kts 289°
2026-04-30 10:08 -31.80074 142.65617 30140 ft 472 kts 288°
2026-04-30 10:08 -31.72163 142.35876 30245 ft 469 kts 288°
2026-04-30 10:08 -31.64321 142.06665 30353 ft 479 kts 288°
2026-04-30 10:08 -31.45565 141.38082 30787 ft 487 kts 288°
2026-04-30 10:09 -31.23073 140.57794 30643 ft 493 kts 287°
2026-04-30 10:09 -30.96399 139.65316 30127 ft 493 kts 287°
2026-04-30 10:09 -30.70292 138.77485 29924 ft 490 kts 288°
2026-04-30 10:09 -30.38200 137.91784 29180 ft 501 kts 297°
2026-04-30 10:10 -30.04578 137.09635 29619 ft 488 kts 296°
2026-04-30 10:10 -29.80681 136.51762 30073 ft 468 kts 295°
2026-04-30 10:10 -29.69307 136.25046 30216 ft 470 kts 293°
2026-04-30 10:11 -29.24166 135.21086 30106 ft 467 kts 294°
2026-04-30 10:11 -29.00868 134.68526 29850 ft 451 kts 294°
2026-04-30 10:11 -28.78423 134.18462 30108 ft 445 kts 294°
2026-04-30 10:11 -28.62171 133.82597 30255 ft 450 kts 294°
2026-04-30 10:12 -28.60734 133.79450 30184 ft 453 kts 295°